Regional Weather Roundup
Issued by NWS

Current Version | Previous Version | Text Only | Print | Product List | Glossary On
Versions: 1 2 3 4 5 6 7 8 9 10 11 12 13 14 15 16 17 18 19 20 21 22 23 24 25 26 27 28 29 30 31 32 33 34 35 36 37 38 39 40 41 42 43 44 45 46 47 48 49 50
618
ASUS42 KTBW 171116
RWRFL
FLORIDA REGIONAL WEATHER ROUNDUP
NATIONAL WEATHER SERVICE TAMPA BAY RUSKIN FL
600 AM EST SAT NOV 17 2018

NOTE: "FAIR" INDICATES FEW OR NO CLOUDS BELOW 12,000 FEET WITH NO
SIGNIFICANT WEATHER AND/OR OBSTRUCTIONS TO VISIBILITY.

FLZ001>010-012>015-112-114-115-171200-
PANHANDLE FLORIDA

CITY           SKY/WX    TMP DP  RH WIND       PRES   REMARKS
PENSACOLA      FAIR      44  41  89 N5        30.21S WCI  42
CRESTVIEW      FAIR      32  30  92 E3        30.23S
DUKE FIELD     FAIR      33  32  98 CALM      30.21S
VALPARAISO     FAIR      39  37  92 N5        30.21R WCI  35
MARY ESTHER    CLEAR     41  41 100 CALM      30.22S
PANAMA CITY    FAIR      38  36  92 CALM      30.21R
TYNDALL AFB    FAIR      47  42  80 N3        30.23S
APALACHICOLA   FAIR      40  37  89 NE5       30.21R WCI  37

STATION/POSITION SKY/WX   TEMP    WIND        PRES    WAVE   SWELL
                          AIR SEA DIR/SP/G            HT/PER HT/PER
                          (F)     (DEG/KT/KT) (MB)    (FT/S) (FT/S)
30.1N   87.6W              59                 1023.3R   1/ 3
29.2N   88.2W                 71  360/  8/ 12 1023.0
PANAMA CITY BEAC           44 68   30/  5/  6 1023.4R
TOWER C                    57      30/ 16/ 18 1022.8R

$$
FLZ011-016>038-118-127-128-134-139-239-171200-
NORTH FLORIDA

CITY           SKY/WX    TMP DP  RH WIND       PRES   REMARKS
MARIANNA       FAIR      38  37  97 CALM      30.22R
TALLAHASSEE    FAIR      36  34  92 CALM      30.22R
PERRY          FAIR      37  37  97 CALM      30.22R
LIVE OAK       CLEAR     36  36 100 CALM      30.21R FOG
CROSS CITY     FAIR      34  33  94 CALM      30.22R
LAKE CITY      FAIR      37  37 100 CALM      30.21R
GAINESVILLE    FAIR      38  36  92 CALM      30.23R
WILLISTON        N/A    N/A N/A N/A MISG        N/A
MAYPORT NAS    FAIR      48  43  82 NW7       30.19R WCI  45
JACKSONVILLE   FAIR      39  37  92 CALM      30.20R
JAX NAS        FAIR      45  41  86 W5        30.21R WCI  43
JAX CECIL      FAIR      34  32  93 CALM      30.21R
FERNANDINA BEA FAIR      45  41  87 NW7       30.20R WCI  41
ST AUGUSTINE   FAIR      46  40  79 NW9       30.20R WCI  41
PALM COAST     CLEAR     46  41  81 N6        30.18R WCI  43

STATION/POSITION SKY/WX   TEMP    WIND        PRES    WAVE   SWELL
                          AIR SEA DIR/SP/G            HT/PER HT/PER
                          (F)     (DEG/KT/KT) (MB)    (FT/S) (FT/S)
SHELL POINT      NOT AVBL
KEATON BEACH               42      40/  2/  3 1023.2R
CEDAR KEY                  47      20/  6/  8 1023.1R
FERNANDINA                 50 67  320/  4/  5 1023.5R
30.7N   81.3W                 68                N/A     3/ 9
MAYPORT                    48 68  320/  7/  9 1022.7R
31.4N   80.9W              59 68   10/ 10/ 12 1022.2R   2/ 9   2/ 9
ST AUGUSTINE               50 68  310/  8/ 11 1022.3R

$$
FLZ040-043>046-052-053-057-058-063-144-171200-
INTERIOR CENTRAL FLORIDA

CITY           SKY/WX    TMP DP  RH WIND       PRES   REMARKS
OCALA            N/A     39  39 100 N3        30.21R
LEESBURG       FAIR      47  42  83 N9        30.19R WCI  43
SANFORD        FAIR      51  47  86 NW7       30.17R
ORLANDO EXEC   FAIR      51  44  77 N7        30.17R
ORLANDO INTL   FAIR      50  44  80 N10       30.16R
KISSIMMEE      FAIR      52  46  80 N7        30.17R
WINTER HAVEN   FAIR      51  46  83 N8        30.17R
LAKELAND       CLEAR     46  43  87 N6        30.17R WCI  43
BARTOW         FAIR      50  46  87 N6        30.15R
SEBRING        FAIR      50  47  88 N6        30.14R
OKEECHOBEE     FAIR      50  45  81 N6        30.12R

$$
FLZ041-047-054-059-064-141-147-171200-
EAST CENTRAL FLORIDA

CITY           SKY/WX    TMP DP  RH WIND       PRES   REMARKS
DAYTONA BEACH  FAIR      49  45  86 NW9       30.17R WCI  45
DELAND         FAIR      46  43  87 NW7       30.17R WCI  43
JFK SPACE CTR  FAIR      51  47  86 NW7         N/A
CAPE CANAVERAL FAIR      55  48  80 NW12      30.13R
PATRICK AFB    FAIR      58  52  82 NW17      30.13R
MELBOURNE      FAIR      50  44  80 NW7       30.13R
VERO BEACH     FAIR      52  48  86 NW8       30.12R
STUART         FAIR      59  54  82 N9        30.11R

STATION/POSITION SKY/WX   TEMP    WIND        PRES    WAVE   SWELL
                          AIR SEA DIR/SP/G            HT/PER HT/PER
                          (F)     (DEG/KT/KT) (MB)    (FT/S) (FT/S)
28.5N   80.2W              70      10/ 10/ 16 1020.1R   5/ 8   5/ 8
28.9N   78.5W              70 81   30/  8/ 14 1019.9R
TRIDENT PIER               57 77  320/  9/ 15 1021.8R
28.4N   80.5W                 77                N/A     3/ 9
27.5N   80.2W                 78                N/A     4/ 4   2/13

$$
FLZ050-056-061-142-242-148-248-149-249-151-251-155-255-
160-260-171200-
WEST CENTRAL FLORIDA

CITY           SKY/WX    TMP DP  RH WIND       PRES   REMARKS
CRYSTAL RIVER  FAIR      39  37  93 CALM      30.20R
BROOKSVILLE    FAIR      36  35  96 CALM      30.20R
CLEARWATER AIR FAIR      46  41  81 N5        30.18R WCI  44
ST PETE CLEARW FAIR      53  46  77 N13       30.17R
TAMPA INTL     FAIR      50  43  77 N7        30.18R
TAMPA EXEC     FAIR      43  43 100 CALM      30.19R
PLANT CITY     FAIR      46  43  87 N3        30.19R
MACDILL AFB    FAIR      47  42  81 NE7       30.17R WCI  44
PETER O KNIGHT FAIR      48  45  87 N6        30.18R
ST PETERSBURG  FAIR      57  49  74 NE15      30.15R
SARASOTA       FAIR      50  46  86 NE7       30.14R
VENICE         FAIR      52  48  87 NE9       30.15R

STATION/POSITION SKY/WX   TEMP    WIND        PRES    WAVE   SWELL
                          AIR SEA DIR/SP/G            HT/PER HT/PER
                          (F)     (DEG/KT/KT) (MB)    (FT/S) (FT/S)
CLEARWATER BEACH           53 73   30/  8/ 10 1022.0R
MIDDLE TAMPA BAY           58      40/ 16/ 19 1021.3R
VENICE                     52 74   40/ 11/ 15 1020.7R

$$
FLZ066-069-070-075>078-162-262-165-265-171200-
SOUTHWEST FLORIDA AND KEYS

CITY           SKY/WX    TMP DP  RH WIND       PRES   REMARKS
PUNTA GORDA    FAIR      49  45  86 NE6       30.15R
FT MYERS       FAIR      53  48  83 NE8       30.12R
SOUTHWEST INTL FAIR      52  46  80 N8        30.13R
NAPLES         MOCLDY    57  49  74 N10       30.10R
MARCO ISLAND   MOCLDY    56  52  86 N8        30.12R
IMMOKALEE      CLOUDY    52  50  93 NW3       30.12R
MARATHON       CLOUDY    69  63  81 N10       30.05R
KEY WEST NAS   CLOUDY    72  64  76 N13G23    30.06R
KEY WEST INTL  MOCLDY    73  64  73 N13       30.06R

STATION/POSITION SKY/WX   TEMP    WIND        PRES    WAVE   SWELL
                          AIR SEA DIR/SP/G            HT/PER HT/PER
                          (F)     (DEG/KT/KT) (MB)    (FT/S) (FT/S)
NAPLES                     57 74   40/  5/  8 1019.3R
26.0N   85.6W              68 79  360/ 12/ 17 1020.7
DRY TORTUGAS               71      20/ 12/ 15 1018.7R
SAND KEY                   72                 1017.6R
SOMBRERO KEY               71     340/ 18/ 20 1016.7R
LONG KEY                   68 76   20/ 19/ 22 1017.4R
MOLASSES REEF              69 81   10/ 16/ 18 1017.4R

$$
FLZ067-068-071>074-168-172>174-171200-
SOUTHEAST FLORIDA

CITY           SKY/WX    TMP DP  RH WIND       PRES   REMARKS
W PALM BEACH   FAIR      59  57  93 NW8       30.09R
FT LAUDER-EXEC CLOUDY    64  61  90 N6        30.07R
FT LAUDERDALE  CLOUDY    64  62  93 N9        30.06R
POMPANO BEACH  CLOUDY    66  59  78 NW8       30.07R
PEMBROKE PINES CLOUDY    66  60  81 NW10      30.08R
OPA LOCKA      CLOUDY    66  61  84 N8        30.07R
MIAMI          MOCLDY    65  61  87 VRB6      30.07R
WEST KENDALL   CLOUDY    65  59  81 N10       30.06R
HOMESTEAD      CLOUDY    65  60  81 NW8       30.05R

STATION/POSITION SKY/WX   TEMP    WIND        PRES    WAVE   SWELL
                          AIR SEA DIR/SP/G            HT/PER HT/PER
                          (F)     (DEG/KT/KT) (MB)    (FT/S) (FT/S)
PORT EVERGLADES            67     320/  8/ 11 1017.7R
VIRGINIA KEY               68 78  330/  5/ 11 1017.4R
LAKE WORTH                 62 79  340/  8/ 12 1019.5R
FOWEY ROCKS                71 79  350/ 16/ 17 1018.1R
SETTLEMENT POINT           73      40/ 13/ 14 1018.4R

$$





USA.gov is the U.S. government's official web portal to all federal, state and local government web resources and services.